sat.trackr.live / text

‹ back to catalog

STARLINK-36193

NORAD 67099 · 2025-298AA

PAYLOAD ACTIVE UNKNOWN

§ Identity

Operator
Country
US
Launch date
2025-12-14
Launch site
AFWTR
Launch vehicle
Mass (kg)
RCS (m²)

Purposes: comms

External: N2YO · Heavens-Above · Gunter

§ Orbital elements

Epoch: 2026-09-19T09:09:25.312608Z

Period
96.11 min
Inclination
69.9991°
Eccentricity
0.0003911
Mean motion
14.98346036 rev/d
Perigee alt
569.3 km
Apogee alt
574.7 km
Semi-major
6,950.1 km
B*
2.8391e-4
RAAN
245.9755°
Arg perigee
264.5171°
Mean anomaly
95.5542°
Rev number
4,223

§ Raw data

STARLINK-361931 67099U 25298AA  26262.38154297  .00003298  00000+0  28391-3 0  99912 67099  69.9991 245.9755 0003911 264.5171  95.5542 14.98346036 42238

JSON: /api/v1/satellites/67099 · /tle

For live sub-satellite position, see the globe view (requires WebGL).

§ Visibility from observer

Set your observer location to see the next 7 days of passes ≥ 10°. The values pass through the URL so the page stays shareable.

No JS? Fill the form by hand. The geolocation button needs JavaScript.